San Jose, Costa Rica

11:57 PM CST on March 24, 2017 (GMT -0600)
Juan Santamaria International Airport

Weather History for MROC - February, 2013

Change the Weather History Date:

Saturday, February 16, 2013

  Actual Average Record
Temperature  
Mean Temperature 75 °F -  
Max Temperature 86 °F 82 °F 91 °F (1998)
Min Temperature 64 °F 64 °F 60 °F (2007)
Cooling Degree Days 10    
Growing Degree Days 25 (Base 50)    
Moisture  
Dew Point 52 °F    
Average Humidity 48    
Maximum Humidity 69    
Minimum Humidity 13    
Precipitation  
Precipitation 0.00 in 0.02 in - ()
Sea Level Pressure  
Sea Level Pressure 29.95 in    
Wind  
Wind Speed 9 mph ()    
Max Wind Speed 15 mph    
Max Gust Speed 29 mph    
Visibility 8.5 miles    
Events      
Averages and records for this station are not official NWS values.
T = Trace of Precipitation, MM = Missing Value Source: Averaged Metar Reports

Daily Weather History Graph

Daily Weather History Graph

Search for Another Location

Airport or City:

Trip Planner

Search our weather history database for the weather conditions in past years. The results will help you decide how hot, cold, wet, or windy it might be!

Date:

Astronomy

Feb. 16, 2013 Rise Set
Actual Time 5:56 AM CST 5:45 PM CST
Civil Twilight 5:34 AM CST 6:07 PM CST
Nautical Twilight 5:09 AM CST 6:32 PM CST
Astronomical Twilight 4:45 AM CST 6:56 PM CST
Moon 10:28 AM CST (2/16) 11:17 PM CST (2/16)
Length of Visible Light 12h 32m
Length of Day
11h 49m
Waxing Crescent, 39% of the Moon is Illuminated
Feb 16
Waxing Crescent
Feb 17
First Quarter
Feb 25
Full
Mar 4
Last Quarter
Mar 11
New

Hourly Weather History & Observations

Time (CST) Temp. Heat Index Dew Point Humidity Pressure Visibility Wind Dir Wind Speed Gust Speed Precip Events Conditions
12:00 AM 68 °F - 54 °F 50% 29.85 in 12 mi East 8.1 mph - -   Scattered Clouds
12:00 AM 68.0 °F - 53.6 °F 60% 30.00 in - East 8.1 mph - N/A   Clear
1:00 AM 68.0 °F - 55.4 °F 64% 29.97 in - ENE 12.7 mph - N/A   Clear
2:00 AM 68.0 °F - 53.6 °F 60% 29.96 in - East 6.9 mph - N/A   Clear
3:00 AM 67 °F - 55 °F 57% 29.80 in 12 mi ENE 6.9 mph - -   Scattered Clouds
3:00 AM 68.0 °F - 57.2 °F 68% 29.96 in - ENE 6.9 mph - N/A   Clear
4:00 AM 66.2 °F - 55.4 °F 68% 29.96 in - NE 9.2 mph - N/A   Clear
5:00 AM 68.0 °F - 53.6 °F 60% 29.97 in - East 8.1 mph - N/A   Clear
6:00 AM 66 °F - 50 °F 45% 29.86 in 12 mi ENE 8.1 mph - -  
6:00 AM 66.2 °F - 50.0 °F 56% 29.99 in - ENE 8.1 mph - N/A   Clear
7:00 AM 69.8 °F - 55.4 °F 60% 30.01 in - ENE 8.1 mph - N/A   Clear
8:00 AM 75.2 °F - 46.4 °F 36% 30.02 in - East 10.4 mph - N/A   Clear
9:00 AM 79 °F - 37 °F 13% 29.88 in 12 mi East 10.4 mph - -  
9:00 AM 78.8 °F - 37.4 °F 23% 30.04 in - East 10.4 mph - N/A   Clear
10:00 AM 80.6 °F - 33.8 °F 18% 30.03 in - East 13.8 mph 27.6 mph N/A   Clear
11:00 AM 84.2 °F - 41.0 °F 22% 30.02 in - East 10.4 mph - N/A   Clear
12:00 PM 84 °F - 45 °F 16% 29.83 in 12 mi East 11.5 mph - -  
12:00 PM 84.2 °F - 44.6 °F 25% 29.99 in - East 11.5 mph - N/A   Clear
1:00 PM 86.0 °F - 50.0 °F 29% 29.96 in 6.2 mi East 9.2 mph 20.7 mph N/A   Partly Cloudy
2:00 PM 84.2 °F 82.8 °F 53.6 °F 35% 29.94 in 6.2 mi East 9.2 mph 20.7 mph N/A   Partly Cloudy
3:00 PM 83 °F - 55 °F 28% 29.79 in 12 mi ESE 11.5 mph - -   Scattered Clouds
3:00 PM 82.4 °F 81.7 °F 55.4 °F 39% 29.92 in 6.2 mi ESE 11.5 mph - N/A   Partly Cloudy
4:00 PM 80.6 °F 80.8 °F 57.2 °F 45% 29.93 in 6.2 mi East 11.5 mph - N/A   Partly Cloudy
5:00 PM 77.0 °F - 55.4 °F 47% 29.95 in 6.2 mi East 12.7 mph - N/A   Partly Cloudy
6:00 PM 73 °F - 59 °F 53% 29.83 in 12 mi ESE 8.1 mph - -   Scattered Clouds
6:00 PM 73.4 °F - 59.0 °F 61% 29.98 in 6.2 mi ESE 8.1 mph - N/A   Partly Cloudy
7:00 PM 71.6 °F - 60.8 °F 69% 30.00 in 6.2 mi East 9.2 mph - N/A   Partly Cloudy
8:00 PM 69.8 °F - 59.0 °F 68% 30.02 in 6.2 mi East 5.8 mph - N/A   Partly Cloudy
9:00 PM 69 °F - 57 °F 57% 29.87 in 12 mi East 12.7 mph - -   Scattered Clouds
9:00 PM 69.8 °F - 57.2 °F 64% 30.03 in 6.2 mi East 12.7 mph - N/A   Partly Cloudy
9:15 PM 69.8 °F - 57.2 °F 64% 30.04 in 6.2 mi East 15.0 mph 28.8 mph N/A   Partly Cloudy
10:00 PM 68.0 °F - 57.2 °F 68% 30.06 in 6.2 mi East 12.7 mph 27.6 mph N/A   Partly Cloudy
11:00 PM 68.0 °F - 55.4 °F 64% 30.05 in 6.2 mi ESE 15.0 mph 26.5 mph N/A   Partly Cloudy